Location: ?????
(44.4284°N, 135.2222°E)
Time: 01:49:14
(UTC+00:00)

ASTEX 1 - Pass Details

Date: 19 May 2025
Orbit: 715 x 734 km, 92.7° (Epoch: 14 June)

Event Time Altitude Azimuth Distance (km) Brightness Sun altitude
Rises 15:02:01 0° 5° (N) 3,160 8.1 -25.6°
Reaches altitude 10° 15:04:19 10° 4° (N) 2,237 7.0 -25.6°
Maximum altitude 15:09:16 84° 278° (W) 741 3.3 -25.6°
Enters shadow 15:09:23 83° 240° (WSW) 743 3.2 -25.6°
